Retour au catalogue

INTELSAT 603

ActifCommunicationsGEO
NORAD 20523·PAYLOAD· XX

Lancé Mar 14, 1990 depuis Cape Canaveral Space Force Station

Loading…

TLE

FraisSource: Space-Track

Époque: Sep 14, 2026, 00:10 UTC

1 20523U 90021A   26257.00718978 -.00000086  00000-0  00000-0 0  9991
2 20523  14.0720   8.6624 0003659  78.2047 280.2536  0.99483385126289

Suivez INTELSAT 603 en temps réel avec AllMySat

Download on the App Store